[[{"header":{"parameterUnit":"m.s-1","parameterCategory":1,"la1":30.2991,"la2":30.254,"lo1":-89.0895,"lo2":-89.0444,"dy":0.0017,"dx":0.0017,"nx":28,"ny":28,"refTime":"2025-05-31T03:00:00:Z","depth":0,"parameterNumber":2,"parameterNumberName":"U-component_of_WINDS"},"data":[0,0,0,0,0,0,0,0,0,0,0,0,0,0,0,0,0,0,0,0,0,0,0,0,0,0,0,0,0,0,0,0,0,0,0,0,0,0,0,0,0,0,0,0,0,0,0,0,0,0,0,0,0,0,0,0,0,0,-0.5109,-0.511,0,-0.5259,-0.5261,-0.5262,-0.5388,-0.5389,-0.5391,-0.5392,-0.5545,-0.5548,-0.555,0,0,0,0,0,0,0,0,0,0,0,0,0,-0.4927,-0.493,-0.5108,-0.511,-0.5112,-0.5259,-0.5261,-0.5263,-0.5388,-0.5389,-0.5391,-0.5392,-0.5544,-0.5547,-0.5551,0,0,0,0,0,0,0,0,0,0,0,0,0,-0.5034,-0.4931,-0.5108,-0.5192,-0.5201,-0.5258,-0.5261,-0.5263,-0.5387,-0.5389,-0.5391,-0.5393,-0.5543,-0.5547,-0.5551,-0.5537,0,0,-0.5564,-0.5566,0,0,0,0,0,0,0,0,-0.5028,-0.5041,-0.5178,-0.5186,-0.5197,-0.5307,-0.5253,-0.5355,-0.5387,-0.5316,-0.5392,-0.5394,-0.5464,-0.5475,-0.5499,-0.5544,-0.5551,-0.5564,-0.5567,-0.5569,-0.557,0,0,0,0,0,0,0,-0.5021,-0.5035,-0.5168,-0.518,-0.5191,-0.5222,-0.5239,-0.5273,-0.5377,-0.5323,-0.5332,-0.5348,-0.5469,-0.5494,-0.5503,-0.5553,-0.5564,-0.5568,-0.5571,-0.5572,-0.5592,-0.559,0,0,0,0,0,0,-0.5,-0.5028,-0.5163,-0.5173,-0.5116,-0.5223,-0.5243,-0.5269,-0.5377,-0.5395,-0.5347,-0.5354,-0.5486,-0.5498,-0.5509,-0.5498,-0.5569,-0.5573,-0.5575,-0.5594,-0.5592,-0.5589,0,0,0,0,0,0,-0.4996,-0.5011,-0.5157,-0.5103,-0.5124,-0.5224,-0.5253,-0.5271,-0.5296,-0.5395,-0.5414,-0.5353,-0.5488,-0.5503,-0.5529,-0.5505,-0.5575,-0.5578,-0.5596,-0.5593,-0.5591,-0.5476,0,0,0,0,0,0,-0.499,-0.5009,-0.5005,-0.5102,-0.5126,-0.5174,-0.5252,-0.5273,-0.5303,-0.5314,-0.5406,-0.5423,-0.5491,-0.5522,-0.5533,-0.5512,-0.5582,-0.5599,-0.5595,-0.5591,-0.5482,-0.5469,-0.5458,0,0,0,0,0,-0.4983,-0.4967,-0.5004,-0.502,-0.5124,-0.5173,-0.5187,-0.5265,-0.5301,-0.5297,-0.5361,-0.542,-0.5506,-0.5523,-0.5537,-0.5517,-0.5601,-0.5596,-0.5592,-0.5487,-0.5472,-0.5458,0,0,0,0,0,0,-0.4865,-0.4981,-0.5024,-0.5038,-0.5095,-0.5194,-0.5192,-0.5247,-0.5294,-0.5302,-0.5397,-0.5417,-0.5431,-0.5477,-0.5494,-0.5508,-0.5561,-0.5559,-0.5477,-0.5463,-0.5451,-0.5439,-0.5585,0,0,0,0,0,-0.484,-0.4871,-0.4971,-0.4974,-0.5,-0.5091,-0.5115,-0.5171,-0.5233,-0.5257,-0.5323,-0.538,-0.542,-0.5445,-0.5487,-0.549,-0.5511,-0.5483,-0.5471,-0.546,-0.5457,-0.546,-0.5448,-0.5575,-0.5575,-0.5575,0,0,-0.479,-0.4857,-0.4871,-0.4952,-0.5002,-0.5031,-0.511,-0.5138,-0.516,-0.5262,-0.5289,-0.5339,-0.541,-0.5423,-0.5432,-0.5462,-0.5427,-0.5455,-0.5446,-0.5448,-0.5454,-0.5442,-0.5431,-0.5572,-0.5572,-0.5573,0,0,-0.4713,-0.4767,-0.4775,-0.4824,-0.4899,-0.4959,-0.496,-0.5051,-0.5088,-0.5117,-0.5194,-0.5221,-0.5288,-0.5335,-0.5367,-0.5306,-0.5361,-0.5317,-0.5254,-0.5255,-0.5245,-0.5237,-0.5213,-0.5204,-0.5314,-0.5313,-0.5313,0,-0.4641,-0.4688,-0.4772,-0.4795,-0.4827,-0.4921,-0.4928,-0.4971,-0.5056,-0.5076,-0.5108,-0.5193,-0.5247,-0.5272,-0.5256,-0.528,-0.5284,-0.5306,-0.524,-0.5233,-0.5226,-0.5204,-0.5195,-0.5307,-0.5308,-0.5309,-0.5309,0,-0.4594,-0.4625,-0.4622,-0.4701,-0.4734,-0.4749,-0.4835,-0.4857,-0.4909,-0.4966,-0.4993,-0.5062,-0.5118,-0.5129,-0.5181,-0.516,-0.5176,-0.5222,-0.5278,-0.5206,-0.5187,-0.518,-0.5299,-0.5301,-0.5303,-0.5304,0,0,-0.4447,-0.4571,-0.4568,-0.4604,-0.4693,-0.4719,-0.4737,-0.4793,-0.4809,-0.4864,-0.4881,-0.4935,-0.4978,-0.5015,-0.5073,-0.5074,-0.5018,-0.5121,-0.5124,-0.5098,-0.4998,-0.4961,-0.495,-0.5056,-0.5055,-0.5054,-0.4991,0,-0.4382,-0.4421,-0.4497,-0.4511,-0.454,-0.4628,-0.4644,-0.47,-0.4752,-0.4784,-0.4843,-0.4879,-0.4934,-0.4956,-0.4962,-0.5024,-0.4999,-0.503,-0.5071,-0.5072,-0.5049,-0.494,-0.4902,-0.4839,-0.4985,-0.4983,-0.4983,0,-0.4313,-0.4361,-0.4378,-0.4463,-0.4478,-0.4491,-0.4547,-0.4577,-0.4641,-0.4679,-0.4719,-0.4782,-0.4805,-0.4856,-0.4888,-0.4907,-0.4929,-0.4961,-0.4961,-0.4967,-0.5021,-0.4941,-0.4821,-0.481,-0.4972,-0.4973,-0.4974,0,-0.4201,-0.4271,-0.4289,-0.4318,-0.4418,-0.4424,-0.4466,-0.4533,-0.4561,-0.461,-0.4628,-0.4679,-0.4706,-0.4744,-0.4818,-0.4849,-0.4841,-0.49,-0.4872,-0.487,-0.4866,-0.4865,-0.4745,-0.4882,-0.4882,-0.4882,-0.4883,0,-0.412,-0.4126,-0.424,-0.4251,-0.426,-0.4347,-0.4353,-0.4404,-0.4461,-0.4483,-0.4564,-0.4582,-0.468,-0.471,-0.4768,-0.4785,-0.4797,-0.4827,-0.4843,-0.4819,-0.4815,-0.4834,-0.4839,-0.488,-0.4881,-0.4881,-0.4881,0,-0.3996,-0.4073,-0.4099,-0.4191,-0.4214,-0.4216,-0.4296,-0.4309,-0.4366,-0.4392,-0.4404,-0.4493,-0.4532,-0.461,-0.4671,-0.4711,-0.4712,-0.4741,-0.469,-0.47,-0.4667,-0.4668,-0.4554,-0.4543,-0.4688,-0.4686,-0.4685,0,-0.3939,-0.3946,-0.4038,-0.4058,-0.4097,-0.4129,-0.4157,-0.4243,-0.4269,-0.4342,-0.4346,-0.4391,-0.4432,-0.4489,-0.4559,-0.4605,-0.4634,-0.4591,-0.4641,-0.4617,-0.4631,-0.4629,-0.4629,-0.4579,-0.4577,-0.4575,-0.4574,0,-0.3829,-0.3866,-0.3904,-0.3954,-0.3986,-0.403,-0.4078,-0.409,-0.4187,-0.4212,-0.4252,-0.4283,-0.4345,-0.4388,-0.4444,-0.4487,-0.4545,-0.4557,-0.4553,-0.4529,-0.4498,-0.4512,-0.4657,-0.4559,-0.4561,-0.4562,-0.4563,-0.4563,-0.3736,-0.3745,-0.3811,-0.385,-0.3895,-0.3938,-0.3954,-0.4013,-0.4048,-0.4104,-0.4153,-0.4188,-0.4251,-0.4333,-0.4371,-0.44,-0.4429,-0.4423,-0.4421,-0.4418,-0.4407,-0.4495,-0.4411,-0.4411,-0.4412,-0.4412,-0.4413,0,-0.3628,-0.3674,-0.3709,-0.3774,-0.3804,-0.3857,-0.3913,-0.3934,-0.3964,-0.4018,-0.4055,-0.4101,-0.4142,-0.4215,-0.4263,-0.4271,-0.4299,-0.428,-0.428,-0.4288,-0.438,-0.4378,-0.4257,-0.4257,-0.4257,-0.4257,-0.4257,-0.4257,-0.3575,-0.3593,-0.3637,-0.3677,-0.3724,-0.3759,-0.3786,-0.3825,-0.3868,-0.3915,-0.3949,-0.3997,-0.4058,-0.411,-0.415,-0.417,-0.4183,-0.4155,-0.4184,-0.4268,-0.4282,-0.4296,-0.4294,-0.4158,-0.4158,-0.409,-0.4089,-0.4088]},{"header":{"parameterUnit":"m.s-1","parameterCategory":1,"la1":30.2991,"la2":30.254,"lo1":-89.0895,"lo2":-89.0444,"dy":0.0017,"dx":0.0017,"nx":28,"ny":28,"refTime":"2025-05-31T03:00:00:Z","depth":0,"parameterNumber":3,"parameterNumberName":"V-component_of_WINDS"},"data":[0,0,0,0,0,0,0,0,0,0,0,0,0,0,0,0,0,0,0,0,0,0,0,0,0,0,0,0,0,0,0,0,0,0,0,0,0,0,0,0,0,0,0,0,0,0,0,0,0,0,0,0,0,0,0,0,0,0,-1.9233,-1.9234,0,-1.93,-1.9301,-1.9302,-1.9307,-1.9306,-1.9306,-1.9305,-1.9372,-1.9374,-1.9377,0,0,0,0,0,0,0,0,0,0,0,0,0,-1.9107,-1.911,-1.9233,-1.9234,-1.9235,-1.93,-1.9301,-1.9302,-1.9307,-1.9306,-1.9305,-1.9304,-1.9371,-1.9374,-1.9377,0,0,0,0,0,0,0,0,0,0,0,0,0,-1.9167,-1.911,-1.9233,-1.9245,-1.9247,-1.93,-1.9301,-1.9302,-1.9307,-1.9306,-1.9305,-1.9304,-1.937,-1.9374,-1.9377,-1.9422,0,0,-1.9389,-1.939,0,0,0,0,0,0,0,0,-1.9164,-1.9172,-1.9242,-1.9244,-1.9246,-1.9294,-1.9282,-1.9343,-1.9308,-1.9284,-1.9305,-1.9304,-1.9347,-1.9352,-1.9367,-1.9425,-1.9428,-1.9389,-1.9391,-1.9393,-1.9394,0,0,0,0,0,0,0,-1.9159,-1.9169,-1.926,-1.9243,-1.9246,-1.9247,-1.9254,-1.9293,-1.9321,-1.9286,-1.9287,-1.9295,-1.9348,-1.9364,-1.9369,-1.9429,-1.9389,-1.9392,-1.9394,-1.9396,-1.9529,-1.953,0,0,0,0,0,0,-1.9153,-1.9165,-1.9257,-1.9262,-1.9202,-1.925,-1.9258,-1.928,-1.932,-1.9326,-1.9296,-1.9295,-1.9358,-1.9365,-1.9371,-1.9427,-1.9393,-1.9396,-1.9398,-1.9527,-1.9529,-1.953,0,0,0,0,0,0,-1.915,-1.9161,-1.9255,-1.9214,-1.9226,-1.9253,-1.9278,-1.9282,-1.9298,-1.9328,-1.9332,-1.9307,-1.9357,-1.9366,-1.941,-1.9429,-1.9398,-1.9401,-1.9526,-1.9528,-1.953,-1.9538,0,0,0,0,0,0,-1.9147,-1.916,-1.9178,-1.9214,-1.9228,-1.9292,-1.9279,-1.9284,-1.9305,-1.9304,-1.934,-1.9344,-1.9357,-1.9404,-1.9414,-1.9434,-1.9404,-1.9524,-1.9527,-1.9529,-1.9536,-1.954,-1.9543,0,0,0,0,0,-1.9142,-1.9177,-1.9179,-1.919,-1.925,-1.9293,-1.9301,-1.9316,-1.9306,-1.9324,-1.9343,-1.9343,-1.9426,-1.9409,-1.9419,-1.9441,-1.9523,-1.9526,-1.9529,-1.9534,-1.9539,-1.9543,0,0,0,0,0,0,-1.9141,-1.9182,-1.9184,-1.9231,-1.9259,-1.9294,-1.9317,-1.932,-1.9351,-1.9349,-1.9365,-1.9373,-1.9416,-1.9433,-1.9413,-1.9487,-1.9473,-1.9479,-1.9474,-1.9479,-1.9482,-1.9477,-1.9407,0,0,0,0,0,-1.9146,-1.9178,-1.9212,-1.9251,-1.9265,-1.9288,-1.9308,-1.9317,-1.9346,-1.9357,-1.938,-1.9407,-1.944,-1.946,-1.9492,-1.9539,-1.9547,-1.9559,-1.9563,-1.9566,-1.957,-1.9596,-1.9602,-1.954,-1.954,-1.954,0,0,-1.9157,-1.9183,-1.9202,-1.9251,-1.9273,-1.9306,-1.9298,-1.9333,-1.9357,-1.9362,-1.9405,-1.9423,-1.9455,-1.9501,-1.9522,-1.9516,-1.9589,-1.957,-1.9572,-1.9574,-1.96,-1.9606,-1.9611,-1.9542,-1.9542,-1.9541,0,0,-1.9193,-1.9217,-1.9251,-1.9275,-1.931,-1.9326,-1.9334,-1.9369,-1.9382,-1.9425,-1.943,-1.946,-1.9515,-1.9538,-1.9556,-1.9604,-1.9605,-1.9614,-1.9632,-1.9658,-1.9663,-1.9667,-1.9684,-1.969,-1.9618,-1.9618,-1.9618,0,-1.9202,-1.9252,-1.9269,-1.9304,-1.9325,-1.9333,-1.9368,-1.939,-1.9433,-1.9447,-1.944,-1.9511,-1.9533,-1.9585,-1.9596,-1.9612,-1.9622,-1.9609,-1.9661,-1.9666,-1.967,-1.9686,-1.9692,-1.9619,-1.9619,-1.9618,-1.9618,0,-1.9261,-1.9295,-1.9319,-1.9362,-1.9386,-1.9421,-1.9443,-1.9466,-1.9473,-1.949,-1.9535,-1.9562,-1.96,-1.9613,-1.962,-1.9666,-1.9661,-1.9658,-1.9644,-1.9676,-1.9692,-1.9698,-1.962,-1.9619,-1.9619,-1.9619,0,0,-1.9295,-1.9349,-1.9357,-1.9377,-1.9417,-1.9444,-1.948,-1.9517,-1.9536,-1.9566,-1.9596,-1.9644,-1.9641,-1.9663,-1.9673,-1.9696,-1.9732,-1.969,-1.9691,-1.9696,-1.9784,-1.9786,-1.9793,-1.9734,-1.9735,-1.9736,-1.9781,0,-1.9335,-1.94,-1.9417,-1.9471,-1.9504,-1.9513,-1.9544,-1.9572,-1.959,-1.9619,-1.9638,-1.9672,-1.9666,-1.9679,-1.9702,-1.9723,-1.975,-1.972,-1.9761,-1.9763,-1.9752,-1.9801,-1.9802,-1.9843,-1.9787,-1.9789,-1.9789,0,-1.939,-1.9422,-1.948,-1.9518,-1.9532,-1.956,-1.9596,-1.9625,-1.9657,-1.9668,-1.9693,-1.9702,-1.974,-1.9726,-1.9778,-1.9757,-1.9776,-1.9788,-1.979,-1.9794,-1.9777,-1.9804,-1.9857,-1.9863,-1.9799,-1.9798,-1.9797,0,-1.9409,-1.9467,-1.9509,-1.9526,-1.9571,-1.959,-1.9609,-1.9641,-1.9663,-1.9695,-1.9709,-1.9745,-1.9764,-1.9792,-1.981,-1.9798,-1.9861,-1.9848,-1.987,-1.987,-1.9882,-1.988,-1.9937,-1.9896,-1.9896,-1.9895,-1.9895,0,-1.9451,-1.9486,-1.9519,-1.9544,-1.9584,-1.9604,-1.9643,-1.9662,-1.9691,-1.972,-1.9731,-1.9759,-1.9782,-1.9813,-1.9827,-1.9868,-1.9877,-1.9887,-1.989,-1.9885,-1.9884,-1.9896,-1.9893,-1.9897,-1.9897,-1.9896,-1.9896,0,-1.9477,-1.9501,-1.9548,-1.9587,-1.9598,-1.9625,-1.9658,-1.9684,-1.9703,-1.974,-1.975,-1.9779,-1.9816,-1.9838,-1.9884,-1.9895,-1.994,-1.9942,-1.9929,-1.993,-1.9951,-1.9948,-2.0016,-2.0026,-1.9979,-1.998,-1.998,0,-1.9502,-1.9529,-1.9572,-1.9593,-1.9613,-1.9647,-1.967,-1.9692,-1.9715,-1.9755,-1.9776,-1.9814,-1.9845,-1.9904,-1.9929,-1.9965,-1.9968,-1.9989,-1.9973,-1.9968,-1.9967,-1.9965,-1.9968,-1.9991,-1.9992,-1.9992,-1.9992,0,-1.9543,-1.9554,-1.9587,-1.9625,-1.9652,-1.9682,-1.9713,-1.9729,-1.9756,-1.9782,-1.9821,-1.9845,-1.9894,-1.9931,-1.997,-1.999,-1.9995,-1.9998,-2.0005,-1.9999,-1.999,-1.9995,-1.9935,-1.9995,-1.9995,-1.9995,-1.9995,-1.9995,-1.9568,-1.9593,-1.9628,-1.9665,-1.969,-1.9719,-1.9745,-1.9768,-1.9801,-1.9842,-1.9853,-1.9894,-1.9927,-1.9979,-2.0,-2.0032,-2.0029,-2.0039,-2.0041,-2.0043,-2.0043,-1.9986,-2.004,-2.0039,-2.0039,-2.0039,-2.0039,0,-1.9609,-1.9633,-1.9666,-1.9709,-1.9738,-1.9743,-1.9778,-1.9801,-1.9837,-1.9868,-1.99,-1.9944,-1.9982,-2.001,-2.0048,-2.0069,-2.0072,-2.0078,-2.0076,-2.008,-2.0045,-2.0034,-2.0074,-2.0074,-2.0074,-2.0074,-2.0074,-2.0074,-1.9634,-1.9676,-1.9692,-1.9747,-1.9771,-1.9811,-1.983,-1.9857,-1.9882,-1.9931,-1.9963,-1.9982,-2.0012,-2.0053,-2.0087,-2.0095,-2.0108,-2.0113,-2.0121,-2.0086,-2.0083,-2.0079,-2.0069,-2.0116,-2.0116,-2.0153,-2.0154,-2.0154]}]]